Regional Weather Roundup
Issued by NWS

Home | Current Version | Previous Version | Graphics & Text | Print | Product List | Glossary On
Versions: 1 2 3 4 5 6 7 8 9 10 11 12 13 14 15 16 17 18 19 20 21 22 23 24 25 26 27 28 29 30 31 32 33 34 35 36 37 38 39 40 41 42 43 44 45 46 47 48 49 50
000
ASUS43 KIND 290309
RWRIN

WEATHER ROUNDUP FOR INDIANA
NATIONAL WEATHER SERVICE INDIANAPOLIS IN
1100 PM EDT TUE JUL 28 2015

NOTE: "FAIR" INDICATES FEW OR NO CLOUDS BELOW 12,000 FEET WITH NO
SIGNIFICANT WEATHER AND/OR OBSTRUCTIONS TO VISIBILITY.

* - STATION DOES NOT REPORT WEATHER SUCH AS PRECIPITATION OR FOG.

+ - STATION NOT QUALITY CONTROLLED BY THE NATIONAL WEATHER SERVICE.
    USE DATA WITH CAUTION...ESPECIALLY DEWPOINT AND RELATIVE
    HUMIDITY OBSERVATIONS.

INZ001>003-010>013-019-020-290400-
NORTHWEST INDIANA

CITY           SKY/WX    TMP DP  RH WIND       PRES   REMARKS
GARY /AIRPORT/ PTCLDY    77  73  88 CALM      29.96R
KNOX *+        CLEAR     77  73  88 SE3       29.97R
LA PORTE +     PTCLDY    77  77 100 CALM      29.99R
MICHIGAN CITY+ PTCLDY    73  73 100 CALM      29.98R
MONTICELLO +   PTCLDY    78  77  96 CALM      29.97R
RENSSELAER +   MOCLDY    77  77 100 CALM      29.98R
VALPARAISO     LGT RAIN  77  73  87 CALM      29.98R

$$

LMZ046-743>745-290400-
SOUTHERN LAKE MICHIGAN

STATION/POSITION TIME  TEMP    WIND        PRES    WAVE
                       AIR SEA DIR/SP/G            HT
                 (UTC) (F)     (DEG/KT/KT) (MB)    (FT)
BURNS HARBOR     0200   85     180/  4/  5 1014.6R
MICHIGAN CITY    0200   84     120/  5/  7   N/A
5NW MICH CITY    0300   78 76  170/  4/  6   N/A     0

$$

INZ004-005-014>016-021>024-290400-
NORTH CENTRAL INDIANA

CITY           SKY/WX    TMP DP  RH WIND       PRES   REMARKS
GOSHEN         CLEAR     75  71  87 CALM      29.99R
LOGANSPORT +   CLEAR     75  70  83 CALM      29.99R
PERU/GRISSOM   CLEAR     79  73  83 S2        29.98R
ROCHESTER +    CLEAR     79  73  83 CALM      30.00R
SOUTH BEND     CLEAR     81  71  71 SE3       29.99R
WARSAW +       PTCLDY    73  72  94 CALM      30.00R

$$

INZ006>009-017-018-025>027-290400-
NORTHEAST INDIANA

CITY           SKY/WX    TMP DP  RH WIND       PRES   REMARKS
ANGOLA *+      CLEAR     73  66  78 CALM      30.02R
AUBURN +       MOCLDY    75  68  78 CALM      30.02R
FORT WAYNE     PTCLDY    78  72  81 CALM      30.01R
HUNTINGTON +   CLEAR     76  74  93 CALM      30.00R

$$

INZ028-029-035-036-043>045-051>053-290400-
WEST CENTRAL INDIANA

CITY           SKY/WX    TMP DP  RH WIND       PRES   REMARKS
CRAWFORDSVL +  PTCLDY    74  74 100 CALM        N/A  FOG
GREENCASTLE +  PTCLDY    75  72  88 CALM      30.00R FOG
LAFAYETTE      CLOUDY    77  76  96 CALM      29.98R FOG
TERRE HAUTE    MOCLDY    80  76  87 CALM      29.99R

$$

INZ030>032-037>040-046>048-054>057-064-065-290400-
CENTRAL INDIANA

CITY           SKY/WX    TMP DP  RH WIND       PRES   REMARKS
FISHERS *+     CLEAR     75  75 100 CALM      30.00R
FRANKFORT +    CLEAR    N/A N/A N/A CALM      30.02R HAZE
GREENWOOD *+   CLEAR     75  72  88 CALM      30.00R
INDIANAPOLIS   PTCLDY    82  73  74 CALM      29.98R
-EAGLE CREEK   CLEAR     81  73  76 CALM      29.99R
KOKOMO *+      CLEAR     79  72  78 CALM      30.00R
MARION +       CLEAR     76  73  90 CALM      30.00R
MT COMFORT *+  CLEAR     75 N/A N/A CALM      30.01R
SHELBYVILLE    CLEAR     78  74  87 CALM      29.99R
ZIONSVILLE +   CLEAR     76  73  89 CALM      30.01R FOG

$$

INZ033-034-041-042-049-050-058-059-290400-
EAST CENTRAL INDIANA

CITY           SKY/WX    TMP DP  RH WIND       PRES   REMARKS
MUNCIE         CLEAR     76  73  91 SE5       30.00R

$$

INZ060-061-067>069-081>083-085>088-290400-
SOUTHWEST INDIANA

CITY           SKY/WX    TMP DP  RH WIND       PRES   REMARKS
EVANSVILLE     CLOUDY    77  73  87 SW8       30.00R
HUNTINGBURG *+ MOCLDY    79  73  83 SW7       30.00R
WASHINGTON +   PTCLDY    76  72  87 CALM      29.98R

$$

INZ062-063-066-070>080-084-089>092-290400-
SOUTH CENTRAL AND SOUTHEAST INDIANA

CITY           SKY/WX    TMP DP  RH WIND       PRES   REMARKS
BLOOMINGTON    PTCLDY    77  75  93 CALM      30.00R
MADISON *+     PTCLDY    77  73  88 CALM      30.02R
NORTH VERNON + CLEAR     79  79 100 CALM      30.00R
SEYMOUR +      CLEAR     77  75  94 CALM      29.98R FOG

$$



USA.gov is the U.S. government's official web portal to all federal, state and local government web resources and services.